Current Weather Conditions: station 63114

sailwx.info

Wind from 140 at 32 knots

Air temperature 4.8° C
Visibility: greater than 2.2 NM
Dewpoint 0.3° C

Last reported at 2016-Feb-07 20:00 UTC.
Time now 2016-Feb-07 21:49 UTC

Location: N 61°18' E 001°42'.
View on Google Maps.

See reports from other nearby stations

  
Tides and Currents Weather Stations Pressure Air Temp Water Temp Dewpoint Dewpoint Depression Visibility Wind Speed Wind Dir Waves Ship Positions
date/time (UTC)wind fromknots sea level pressurealtimeterstation pressurevisibilityair tempwater tempwave heightnotes
2016-Feb-07 20:00 140 32 2.2 4.8
2016-Feb-07 19:00 150 31 5.4 6.4
2016-Feb-07 18:00 160 27 5.4 6.5
2016-Feb-07 17:00 170 25 10.8 6.6
2016-Feb-07 16:00 180 24 10.8 6.6
2016-Feb-07 15:00 180 26 10.8 6.7
2016-Feb-07 14:00 190 25 10.8 6.5
2016-Feb-07 13:00 190 31 10.8 6.8
2016-Feb-07 12:00 180 24 10.8 6.8
2016-Feb-07 11:00 190 22 10.8 6.6
2016-Feb-07 10:00 210 23 5.4 5.2
2016-Feb-07 09:00 210 26 10.8 5.9
2016-Feb-07 08:00 160 22 2.2 7.7
2016-Feb-07 07:00 150 19 2.2 7.7
2016-Feb-07 06:00 130 13 2.2 7.6
2016-Feb-07 05:00 140 11 10.8 7.0
2016-Feb-07 04:00 070 19 2.2 5.2
2016-Feb-07 03:00 070 25 2.2 4.1
2016-Feb-07 02:00 080 25 2.2 3.9
2016-Feb-07 01:00 080 25 2.2 4.3
2016-Feb-07 00:00 090 25 5.4 4.6
2016-Feb-06 23:00 110 20 5.4 5.0
2016-Feb-06 22:00 120 20 10.8 5.3
2016-Feb-06 21:00 140 19 10.8 5.4
2016-Feb-06 20:00 160 19 10.8 5.7
2016-Feb-06 19:00 170 13 10.8 6.3
2016-Feb-06 18:00 180 18 10.8 6.3
2016-Feb-06 17:00 180 18 10.8 6.3
2016-Feb-06 16:00
2016-Feb-06 15:00 190 20 10.8 6.2
2016-Feb-06 14:00 190 22 10.8 6.3
2016-Feb-06 13:00 190 20 10.8 6.4
2016-Feb-06 12:00 190 15 10.8 5.4
2016-Feb-06 11:00 210 20 27.0 6.2
2016-Feb-06 10:00 210 18 10.8 6.1
2016-Feb-06 09:00 220 16 27.0 5.8
2016-Feb-06 08:00 220 17 27.0 5.5
2016-Feb-06 07:00 220 14 27.0 5.2
2016-Feb-06 06:00 230 12 27.0 5.0
2016-Feb-06 05:00 240 11 27.0 4.2
2016-Feb-06 04:00 290 8 10.8 3.7
2016-Feb-06 03:00 290 10 10.8 3.6
2016-Feb-06 02:00 290 14 2.2 3.7
2016-Feb-06 01:00 280 11 5.4 3.8
2016-Feb-06 00:00 250 11 5.4 4.7
2016-Feb-05 23:00 260 12 5.4 5.0
2016-Feb-05 22:00 210 11 10.8 5.7
2016-Feb-05 21:00 230 12 10.8 5.5